[[{"header":{"parameterUnit":"m.s-1","parameterCategory":1,"la1":30.2991,"la2":30.254,"lo1":-89.0895,"lo2":-89.0444,"dy":0.0017,"dx":0.0017,"nx":28,"ny":28,"refTime":"2023-11-10T09:00:00:Z","depth":0,"parameterNumber":2,"parameterNumberName":"U-component_of_WINDS"},"data":[0,0,0,0,0,0,0,0,0,0,0,0,0,0,0,0,0,0,0,0,0,0,0,0,0,0,0,0,0,0,0,0,0,0,0,0,0,0,0,0,0,0,0,0,0,0,0,0,0,0,0,0,0,0,0,0,0,0,-2.1373,-2.1373,0,-2.1399,-2.1399,-2.1399,-2.1321,-2.1318,-2.1316,-2.1313,-2.134,-2.1343,-2.1346,0,0,0,0,0,0,0,0,0,0,0,0,0,-2.1258,-2.1261,-2.1373,-2.1373,-2.1374,-2.1399,-2.1399,-2.1399,-2.1321,-2.1318,-2.1315,-2.1312,-2.1339,-2.1343,-2.1346,0,0,0,0,0,0,0,0,0,0,0,0,0,-2.1298,-2.1261,-2.1373,-2.1338,-2.1335,-2.1398,-2.1399,-2.1399,-2.1322,-2.1318,-2.1314,-2.1311,-2.1338,-2.1342,-2.1347,-2.1446,0,0,-2.136,-2.1362,0,0,0,0,0,0,0,0,-2.1296,-2.1303,-2.1343,-2.134,-2.1337,-2.1353,-2.1368,-2.1415,-2.1323,-2.1327,-2.1313,-2.1309,-2.1347,-2.1351,-2.1363,-2.1447,-2.1448,-2.1361,-2.1363,-2.1365,-2.1366,0,0,0,0,0,0,0,-2.1293,-2.1301,-2.1383,-2.1343,-2.134,-2.1321,-2.1323,-2.1377,-2.1357,-2.1326,-2.132,-2.1324,-2.1345,-2.1359,-2.1363,-2.1449,-2.136,-2.1364,-2.1367,-2.1369,-2.1617,-2.1621,0,0,0,0,0,0,-2.1295,-2.1299,-2.1382,-2.1384,-2.1307,-2.1326,-2.1328,-2.1351,-2.1356,-2.1353,-2.1327,-2.1321,-2.1354,-2.1358,-2.1364,-2.1482,-2.1365,-2.1369,-2.1372,-2.1613,-2.1618,-2.1622,0,0,0,0,0,0,-2.1293,-2.1303,-2.1381,-2.134,-2.1349,-2.1332,-2.1359,-2.1354,-2.1368,-2.1357,-2.1353,-2.1346,-2.1351,-2.1358,-2.1427,-2.1482,-2.1371,-2.1375,-2.1609,-2.1615,-2.162,-2.1718,0,0,0,0,0,0,-2.129,-2.1303,-2.134,-2.1342,-2.1351,-2.1443,-2.1362,-2.1357,-2.1376,-2.1367,-2.1373,-2.1371,-2.1349,-2.142,-2.1431,-2.1486,-2.1379,-2.1604,-2.1611,-2.1618,-2.171,-2.1727,-2.1741,0,0,0,0,0,-2.1286,-2.1366,-2.1342,-2.1353,-2.1397,-2.1447,-2.1452,-2.1425,-2.138,-2.1418,-2.1411,-2.137,-2.1474,-2.1428,-2.1439,-2.1497,-2.16,-2.1609,-2.1618,-2.1703,-2.1723,-2.1741,0,0,0,0,0,0,-2.1371,-2.1366,-2.1339,-2.1422,-2.1436,-2.1433,-2.148,-2.1447,-2.1473,-2.1464,-2.143,-2.1432,-2.1507,-2.1508,-2.1457,-2.1594,-2.1529,-2.1541,-2.159,-2.161,-2.1625,-2.1624,-2.1382,0,0,0,0,0,-2.14,-2.144,-2.1433,-2.1507,-2.1515,-2.1497,-2.1517,-2.1495,-2.1508,-2.1513,-2.1511,-2.1525,-2.1561,-2.1585,-2.1617,-2.171,-2.1711,-2.1755,-2.177,-2.1783,-2.1794,-2.1844,-2.1864,-2.1652,-2.1652,-2.1651,0,0,-2.1459,-2.1461,-2.1488,-2.1524,-2.1532,-2.1575,-2.1502,-2.155,-2.1582,-2.152,-2.1585,-2.1585,-2.1598,-2.168,-2.1716,-2.1683,-2.1853,-2.1794,-2.1805,-2.1808,-2.1856,-2.1876,-2.1894,-2.1658,-2.1657,-2.1656,0,0,-2.1589,-2.1594,-2.1657,-2.1667,-2.168,-2.1667,-2.1683,-2.1686,-2.1683,-2.1748,-2.1703,-2.1741,-2.1802,-2.1815,-2.1829,-2.1966,-2.193,-2.1977,-2.2059,-2.2109,-2.2125,-2.214,-2.2191,-2.2209,-2.1988,-2.1988,-2.1988,0,-2.1661,-2.1724,-2.1694,-2.1746,-2.1764,-2.171,-2.1774,-2.1785,-2.1808,-2.1822,-2.1785,-2.1863,-2.1868,-2.1952,-2.1986,-2.1999,-2.2016,-2.1976,-2.2125,-2.214,-2.2153,-2.2201,-2.222,-2.1994,-2.1993,-2.1992,-2.1992,0,-2.1813,-2.1858,-2.1907,-2.1932,-2.1955,-2.2013,-2.1992,-2.2019,-2.1995,-2.1987,-2.2055,-2.2059,-2.2092,-2.211,-2.2087,-2.2193,-2.2172,-2.2131,-2.2066,-2.218,-2.2224,-2.2242,-2.2002,-2.2,-2.1998,-2.1997,0,0,-2.1997,-2.2005,-2.2024,-2.2035,-2.2046,-2.208,-2.2136,-2.2169,-2.2194,-2.2212,-2.2259,-2.2313,-2.2276,-2.2292,-2.227,-2.2314,-2.2425,-2.2268,-2.2268,-2.2298,-2.2543,-2.2575,-2.2596,-2.2401,-2.2404,-2.2407,-2.2542,0,-2.2127,-2.2223,-2.2198,-2.2294,-2.2336,-2.2286,-2.2335,-2.2348,-2.2342,-2.2377,-2.237,-2.241,-2.2357,-2.2367,-2.2408,-2.2403,-2.2474,-2.2392,-2.2445,-2.2448,-2.2445,-2.2619,-2.2653,-2.2781,-2.2559,-2.2562,-2.2564,0,-2.2291,-2.2316,-2.2417,-2.2423,-2.2439,-2.2484,-2.2513,-2.2546,-2.256,-2.2553,-2.2573,-2.2542,-2.2599,-2.2533,-2.2611,-2.2557,-2.2577,-2.2578,-2.2582,-2.2587,-2.2514,-2.263,-2.282,-2.284,-2.2591,-2.2589,-2.2587,0,-2.2417,-2.2476,-2.2545,-2.2555,-2.2564,-2.2597,-2.2602,-2.2612,-2.2634,-2.2659,-2.2673,-2.2704,-2.2722,-2.2748,-2.2727,-2.2681,-2.281,-2.2741,-2.2806,-2.2807,-2.2836,-2.2835,-2.3034,-2.2847,-2.2847,-2.2847,-2.2846,0,-2.2565,-2.2629,-2.2602,-2.2644,-2.2715,-2.2685,-2.2756,-2.2756,-2.2766,-2.2808,-2.2766,-2.2806,-2.2776,-2.2814,-2.2799,-2.2867,-2.2875,-2.2871,-2.2867,-2.2876,-2.2877,-2.289,-2.2881,-2.2852,-2.2851,-2.285,-2.2849,0,-2.2719,-2.2703,-2.2774,-2.2777,-2.2779,-2.2831,-2.2833,-2.2873,-2.2864,-2.2918,-2.2929,-2.2916,-2.2959,-2.2941,-2.2985,-2.2975,-2.3063,-2.3046,-2.3059,-2.3055,-2.3122,-2.3117,-2.3337,-2.3365,-2.3159,-2.3161,-2.3163,0,-2.2815,-2.2863,-2.2871,-2.2896,-2.2904,-2.2945,-2.2968,-2.2941,-2.2966,-2.2987,-2.3025,-2.3064,-2.3094,-2.3165,-2.316,-2.3195,-2.3179,-2.3254,-2.3184,-2.3192,-2.3182,-2.318,-2.3186,-2.3268,-2.3271,-2.3273,-2.3274,0,-2.2988,-2.2978,-2.3012,-2.3044,-2.3072,-2.3096,-2.3116,-2.3139,-2.3113,-2.3144,-2.3187,-2.3211,-2.3258,-2.3298,-2.3329,-2.3335,-2.3302,-2.3296,-2.3313,-2.3324,-2.333,-2.333,-2.3099,-2.3292,-2.329,-2.3289,-2.3288,-2.3287,-2.3116,-2.3158,-2.3171,-2.321,-2.3223,-2.3243,-2.3281,-2.3278,-2.3314,-2.335,-2.3332,-2.3383,-2.3397,-2.3436,-2.3446,-2.3487,-2.3457,-2.3482,-2.3488,-2.3495,-2.3505,-2.3323,-2.3492,-2.3491,-2.3491,-2.349,-2.349,0,-2.3289,-2.3295,-2.3332,-2.3362,-2.3394,-2.3359,-2.338,-2.3409,-2.3455,-2.3471,-2.3502,-2.3553,-2.3592,-2.359,-2.3627,-2.366,-2.3646,-2.367,-2.3668,-2.3671,-2.3528,-2.351,-2.3681,-2.3681,-2.3681,-2.3681,-2.3681,-2.3681,-2.3382,-2.3451,-2.3443,-2.3519,-2.3524,-2.3574,-2.3589,-2.3608,-2.3621,-2.3681,-2.3713,-2.3712,-2.3721,-2.3758,-2.3793,-2.3792,-2.3808,-2.3839,-2.3833,-2.3699,-2.368,-2.3662,-2.3646,-2.3843,-2.3843,-2.3972,-2.3973,-2.3974]},{"header":{"parameterUnit":"m.s-1","parameterCategory":1,"la1":30.2991,"la2":30.254,"lo1":-89.0895,"lo2":-89.0444,"dy":0.0017,"dx":0.0017,"nx":28,"ny":28,"refTime":"2023-11-10T09:00:00:Z","depth":0,"parameterNumber":3,"parameterNumberName":"V-component_of_WINDS"},"data":[0,0,0,0,0,0,0,0,0,0,0,0,0,0,0,0,0,0,0,0,0,0,0,0,0,0,0,0,0,0,0,0,0,0,0,0,0,0,0,0,0,0,0,0,0,0,0,0,0,0,0,0,0,0,0,0,0,0,-0.9461,-0.9461,0,-0.9452,-0.9452,-0.9452,-0.9442,-0.9442,-0.9442,-0.9442,-0.9432,-0.9432,-0.9432,0,0,0,0,0,0,0,0,0,0,0,0,0,-0.9468,-0.9468,-0.9461,-0.9461,-0.946,-0.9452,-0.9452,-0.9452,-0.9442,-0.9442,-0.9442,-0.9441,-0.9432,-0.9432,-0.9432,0,0,0,0,0,0,0,0,0,0,0,0,0,-0.9463,-0.9468,-0.9461,-0.9455,-0.9454,-0.9452,-0.9452,-0.9452,-0.9442,-0.9442,-0.9442,-0.9441,-0.9432,-0.9432,-0.9432,-0.9435,0,0,-0.9431,-0.9431,0,0,0,0,0,0,0,0,-0.9463,-0.9462,-0.9456,-0.9455,-0.9454,-0.9448,-0.9451,-0.9446,-0.9442,-0.9447,-0.9442,-0.9441,-0.9437,-0.9437,-0.9436,-0.9434,-0.9434,-0.9431,-0.9431,-0.9431,-0.9431,0,0,0,0,0,0,0,-0.9463,-0.9463,-0.9457,-0.9455,-0.9455,-0.9452,-0.9451,-0.945,-0.9443,-0.9446,-0.9445,-0.9445,-0.9437,-0.9436,-0.9435,-0.9434,-0.9431,-0.9431,-0.9431,-0.9431,-0.9435,-0.9435,0,0,0,0,0,0,-0.9465,-0.9463,-0.9457,-0.9457,-0.9458,-0.9452,-0.9451,-0.945,-0.9443,-0.9442,-0.9445,-0.9444,-0.9436,-0.9435,-0.9435,-0.9438,-0.9431,-0.9431,-0.9431,-0.9435,-0.9435,-0.9435,0,0,0,0,0,0,-0.9465,-0.9464,-0.9458,-0.946,-0.9459,-0.9452,-0.9451,-0.945,-0.9449,-0.9442,-0.9441,-0.9445,-0.9436,-0.9435,-0.9435,-0.9438,-0.9431,-0.943,-0.9434,-0.9435,-0.9435,-0.9445,0,0,0,0,0,0,-0.9465,-0.9464,-0.9466,-0.946,-0.9459,-0.9458,-0.9452,-0.945,-0.9449,-0.9448,-0.9442,-0.9441,-0.9436,-0.9435,-0.9435,-0.9437,-0.943,-0.9434,-0.9434,-0.9435,-0.9444,-0.9445,-0.9446,0,0,0,0,0,-0.9465,-0.9469,-0.9466,-0.9465,-0.946,-0.9459,-0.9458,-0.9452,-0.9449,-0.945,-0.9446,-0.9441,-0.9437,-0.9435,-0.9435,-0.9437,-0.9434,-0.9434,-0.9435,-0.9444,-0.9445,-0.9446,0,0,0,0,0,0,-0.9475,-0.9468,-0.9465,-0.9466,-0.9463,-0.9457,-0.9458,-0.9454,-0.9452,-0.9451,-0.9444,-0.9443,-0.9443,-0.944,-0.9438,-0.944,-0.9435,-0.9435,-0.9442,-0.9443,-0.9444,-0.9445,-0.943,0,0,0,0,0,-0.9477,-0.9476,-0.947,-0.9472,-0.9471,-0.9465,-0.9464,-0.946,-0.9456,-0.9455,-0.945,-0.9447,-0.9445,-0.9444,-0.9442,-0.9444,-0.9442,-0.9445,-0.9446,-0.9447,-0.9447,-0.9448,-0.9449,-0.9437,-0.9437,-0.9437,0,0,-0.9481,-0.9478,-0.9478,-0.9474,-0.9471,-0.947,-0.9464,-0.9463,-0.9463,-0.9455,-0.9454,-0.9451,-0.9447,-0.9447,-0.9448,-0.9445,-0.945,-0.9448,-0.9448,-0.9448,-0.9448,-0.945,-0.9451,-0.9437,-0.9437,-0.9437,0,0,-0.9489,-0.9487,-0.9488,-0.9485,-0.9481,-0.9477,-0.9477,-0.9472,-0.947,-0.9469,-0.9463,-0.9462,-0.9459,-0.9456,-0.9454,-0.9461,-0.9456,-0.9461,-0.9466,-0.9467,-0.9468,-0.9469,-0.9471,-0.9472,-0.9461,-0.9461,-0.9461,0,-0.9496,-0.9495,-0.9489,-0.9489,-0.9487,-0.948,-0.9482,-0.9479,-0.9474,-0.9473,-0.9471,-0.9467,-0.9463,-0.9463,-0.9465,-0.9464,-0.9463,-0.9461,-0.9468,-0.9469,-0.947,-0.9472,-0.9473,-0.9462,-0.9462,-0.9462,-0.9462,0,-0.9502,-0.9502,-0.9503,-0.9499,-0.9498,-0.9498,-0.9492,-0.9492,-0.9488,-0.9484,-0.9484,-0.9479,-0.9476,-0.9476,-0.9472,-0.9475,-0.9474,-0.947,-0.9465,-0.9472,-0.9474,-0.9474,-0.9462,-0.9462,-0.9462,-0.9462,0,0,-0.9516,-0.9509,-0.9509,-0.9507,-0.9502,-0.9502,-0.9502,-0.9499,-0.9498,-0.9495,-0.9495,-0.9493,-0.9489,-0.9487,-0.9483,-0.9483,-0.9489,-0.9479,-0.9479,-0.9481,-0.9492,-0.9495,-0.9496,-0.9486,-0.9486,-0.9486,-0.9492,0,-0.9523,-0.9523,-0.9518,-0.9519,-0.9518,-0.9512,-0.9512,-0.9509,-0.9505,-0.9504,-0.95,-0.9498,-0.9494,-0.9492,-0.9492,-0.9488,-0.9491,-0.9488,-0.9485,-0.9485,-0.9486,-0.9497,-0.95,-0.9506,-0.9493,-0.9493,-0.9493,0,-0.9531,-0.9528,-0.953,-0.9525,-0.9524,-0.9524,-0.9521,-0.952,-0.9517,-0.9514,-0.9512,-0.9507,-0.9506,-0.9502,-0.9501,-0.9499,-0.9497,-0.9495,-0.9495,-0.9494,-0.9489,-0.9496,-0.9508,-0.9508,-0.9494,-0.9494,-0.9494,0,-0.954,-0.9538,-0.9538,-0.9537,-0.9531,-0.9531,-0.9528,-0.9524,-0.9523,-0.952,-0.9519,-0.9516,-0.9515,-0.9513,-0.9507,-0.9504,-0.9507,-0.9502,-0.9504,-0.9504,-0.9505,-0.9505,-0.9516,-0.9504,-0.9504,-0.9504,-0.9504,0,-0.9548,-0.9549,-0.9542,-0.9542,-0.9543,-0.9538,-0.9538,-0.9535,-0.9532,-0.9531,-0.9525,-0.9525,-0.9517,-0.9516,-0.9512,-0.9511,-0.9511,-0.9508,-0.9507,-0.9509,-0.9509,-0.9508,-0.9507,-0.9505,-0.9505,-0.9505,-0.9504,0,-0.9559,-0.9554,-0.9554,-0.9549,-0.9548,-0.9548,-0.9544,-0.9543,-0.954,-0.9539,-0.9538,-0.9532,-0.953,-0.9525,-0.9521,-0.9518,-0.9519,-0.9517,-0.952,-0.9519,-0.9522,-0.9522,-0.9533,-0.9534,-0.9522,-0.9522,-0.9522,0,-0.9565,-0.9565,-0.956,-0.9559,-0.9557,-0.9556,-0.9555,-0.9549,-0.9548,-0.9543,-0.9544,-0.9541,-0.9539,-0.9536,-0.9531,-0.9528,-0.9526,-0.953,-0.9525,-0.9527,-0.9525,-0.9525,-0.9525,-0.9531,-0.9531,-0.9531,-0.9531,0,-0.9575,-0.9573,-0.9571,-0.9569,-0.9567,-0.9565,-0.9562,-0.9562,-0.9555,-0.9554,-0.9552,-0.955,-0.9547,-0.9544,-0.9541,-0.9538,-0.9533,-0.9532,-0.9533,-0.9534,-0.9536,-0.9535,-0.9523,-0.9532,-0.9532,-0.9532,-0.9532,-0.9532,-0.9583,-0.9583,-0.958,-0.9578,-0.9575,-0.9573,-0.9573,-0.9569,-0.9567,-0.9564,-0.9561,-0.9559,-0.9555,-0.955,-0.9547,-0.9545,-0.9543,-0.9544,-0.9544,-0.9544,-0.9545,-0.9537,-0.9545,-0.9545,-0.9545,-0.9545,-0.9545,0,-0.9593,-0.959,-0.9589,-0.9585,-0.9584,-0.958,-0.9577,-0.9576,-0.9575,-0.9572,-0.9569,-0.9567,-0.9565,-0.956,-0.9557,-0.9556,-0.9554,-0.9556,-0.9555,-0.9555,-0.9547,-0.9547,-0.9557,-0.9557,-0.9557,-0.9557,-0.9557,-0.9557,-0.9598,-0.9598,-0.9595,-0.9594,-0.9591,-0.959,-0.9588,-0.9586,-0.9583,-0.9581,-0.9579,-0.9576,-0.9572,-0.9568,-0.9566,-0.9564,-0.9564,-0.9566,-0.9564,-0.9557,-0.9555,-0.9554,-0.9554,-0.9566,-0.9566,-0.9571,-0.9571,-0.9571]}]]